Manhattan, KS

12:12 AM CDT on August 23, 2017 (GMT -0500)
Manhattan Regional

Weather History for KMHK - November, 2014

Change the Weather History Date:

Sunday, November 9, 2014

  Actual Average Record
Temperature  
Mean Temperature 49 °F 46 °F  
Max Temperature 68 °F 58 °F 82 °F (2012)
Min Temperature 29 °F 33 °F 19 °F (2001)
Degree Days  
Heating Degree Days 16 19  
Month to date heating degree days 149 160  
Since 1 July heating degree days 449 559  
Cooling Degree Days 0 0  
Month to date cooling degree days 0 0  
Year to date cooling degree days 1581 1361  
Moisture  
Dew Point 36 °F    
Average Humidity 63    
Maximum Humidity 89    
Minimum Humidity 37    
Precipitation  
Precipitation 0.00 in 0.07 in 0.26 in (1998)
Month to date precipitation 0.01 0.65  
Year to date precipitation 20.63 30.58  
Sea Level Pressure  
Sea Level Pressure 29.79 in    
Wind  
Wind Speed 6 mph (SW)    
Max Wind Speed 17 mph    
Max Gust Speed 23 mph    
Visibility 10 miles    
Events      
T = Trace of Precipitation, MM = Missing Value Source: NWS Daily Summary

Daily Weather History Graph

Daily Weather History Graph

Search for Another Location

Airport or City:

Trip Planner

Search our weather history database for the weather conditions in past years. The results will help you decide how hot, cold, wet, or windy it might be!

Date:

Astronomy

Nov. 09, 2014 Rise Set
Actual Time 7:03 AM CST 5:17 PM CST
Civil Twilight 6:34 AM CST 5:45 PM CST
Nautical Twilight 6:02 AM CST 6:17 PM CST
Astronomical Twilight 5:31 AM CST 6:48 PM CST
Moon 7:51 PM CST (11/9) 9:36 AM CST (11/9)
Length of Visible Light 11h 10m
Length of Day
10h 14m
Waning Gibbous, 91% of the Moon is Illuminated
Nov 9
Waning Gibbous
Nov 14
Last Quarter
Nov 22
New
Nov 29
First Quarter
Dec 6
Full

Hourly Weather History & Observations

Time (CST) Temp. Windchill Dew Point Humidity Pressure Visibility Wind Dir Wind Speed Gust Speed Precip Events Conditions
12:52 AM 30.9 °F - 27.0 °F 85% 30.02 in 10.0 mi Calm Calm - N/A   Clear
1:52 AM 35.1 °F - 28.0 °F 76% 29.98 in 10.0 mi Calm Calm - N/A   Clear
2:52 AM 34.0 °F - 28.0 °F 79% 29.96 in 10.0 mi Calm Calm - N/A   Clear
3:52 AM 42.1 °F 36.1 °F 30.0 °F 62% 29.91 in 10.0 mi SSW 10.4 mph - N/A   Clear
4:52 AM 44.1 °F 38.1 °F 28.9 °F 55% 29.91 in 10.0 mi SSW 11.5 mph - N/A   Clear
5:52 AM 45.0 °F 40.1 °F 28.9 °F 53% 29.91 in 10.0 mi SW 9.2 mph - N/A   Clear
6:52 AM 44.1 °F 40.1 °F 30.0 °F 58% 29.91 in 10.0 mi WSW 6.9 mph - N/A   Clear
7:52 AM 44.1 °F - 30.9 °F 60% 29.91 in 10.0 mi Calm Calm - N/A   Clear
8:52 AM 48.9 °F - 33.1 °F 54% 29.90 in 10.0 mi SSW 6.9 mph - N/A   Clear
9:52 AM 55.0 °F - 35.1 °F 47% 29.88 in 10.0 mi SW 12.7 mph - N/A   Clear
10:52 AM 57.9 °F - 37.0 °F 46% 29.85 in 10.0 mi SW 15.0 mph - N/A   Clear
11:52 AM 62.1 °F - 37.9 °F 41% 29.81 in 10.0 mi SW 12.7 mph - N/A   Clear
12:52 PM 64.9 °F - 39.0 °F 39% 29.76 in 10.0 mi SW 15.0 mph - N/A   Clear
1:52 PM 66.0 °F - 39.0 °F 37% 29.73 in 10.0 mi SW 13.8 mph - N/A   Clear
2:52 PM 66.9 °F - 39.9 °F 37% 29.71 in 10.0 mi SSW 9.2 mph - N/A   Clear
3:52 PM 66.9 °F - 39.9 °F 37% 29.69 in 10.0 mi SW 10.4 mph - N/A   Clear
4:52 PM 63.0 °F - 41.0 °F 45% 29.68 in 10.0 mi SSW 3.5 mph - N/A   Clear
5:52 PM 55.0 °F - 41.0 °F 59% 29.69 in 10.0 mi Calm Calm - N/A   Clear
6:52 PM 53.1 °F - 41.0 °F 64% 29.68 in 10.0 mi SSW 4.6 mph - N/A   Clear
7:52 PM 46.9 °F - 39.0 °F 74% 29.67 in 10.0 mi South 3.5 mph - N/A   Clear
8:52 PM 46.9 °F - 41.0 °F 80% 29.65 in 10.0 mi Calm Calm - N/A   Clear
9:52 PM 45.0 °F - 39.9 °F 82% 29.63 in 10.0 mi Calm Calm - N/A   Clear
10:52 PM 43.0 °F - 39.9 °F 89% 29.60 in 10.0 mi Calm Calm - N/A   Clear
11:52 PM 45.0 °F - 41.0 °F 86% 29.57 in 10.0 mi Calm Calm - N/A   Clear